Lid_Strength_Index
7 7 7 8 10 8 11 11 12 11 11 8 8 8 7 7 6 6 5 4 4 3 3 2 2 2 1 1 1 1 1 0
7 7 7 8 8 10 10 14 14 13 14 12 10 9 8 7 6 6 5 4 4 3 3 2 2 2 1 1 1 1 1 0
8 9 10 8 9 10 9 11 13 14 13 9 9 8 8 7 6 5 5 5 4 3 3 2 2 1 1 1 1 1 1 0
10 8 7 8 9 9 11 14 12 13 12 8 8 7 7 7 6 5 5 4 4 3 3 3 2 2 2 1 1 1 1 0
11 9 8 9 9 9 10 10 14 14 12 7 7 7 7 7 6 6 5 4 4 4 3 3 2 2 2 2 2 1 1 1
12 10 9 10 10 9 9 12 12 12 11 9 8 8 7 7 6 6 5 5 4 4 3 3 2 2 2 2 1 1 1 1
9 9 9 10 10 10 10 10 12 9 11 8 7 7 7 6 6 6 6 5 5 4 4 3 3 2 2 2 1 1 1 1
11 10 10 11 10 9 9 9 10 9 10 7 6 6 7 7 6 6 6 6 5 4 4 3 3 3 3 2 1 1 2 2
11 11 11 12 9 9 9 8 9 11 8 7 8 7 7 7 6 6 6 5 5 4 4 3 3 3 3 2 1 1 2 1
11 12 16 8 7 8 9 8 8 8 8 7 7 6 6 5 6 6 5 5 4 4 3 3 2 2 2 2 2 2 2 1
12 13 10 9 8 9 10 9 7 8 7 7 7 6 6 5 5 4 4 4 4 3 3 2 2 2 2 2 2 2 2 2
12 13 14 9 7 6 7 12 7 7 7 7 7 10 7 5 4 4 4 3 3 3 3 3 2 2 2 3 3 3 2 2
12 12 10 7 7 6 13 11 7 7 7 7 8 7 6 4 4 3 3 3 3 3 3 3 2 2 3 3 3 2 2 1
12 13 13 6 7 10 7 6 6 6 6 6 6 5 5 5 4 4 4 3 3 3 3 2 2 2 3 3 2 2 3 3
9 9 7 5 6 5 5 6 6 6 5 5 5 6 5 5 5 4 4 4 3 3 3 2 2 2 3 2 3 3 4 5
8 7 6 5 5 4 4 5 5 4 5 5 5 5 5 4 5 4 4 3 3 3 3 3 3 2 2 2 2 3 5 6
8 7 6 5 5 4 5 4 4 4 4 4 5 5 4 5 4 4 3 3 3 3 3 3 2 3 2 2 3 5 5 5
8 6 6 5 4 4 5 5 4 4 5 4 4 4 4 4 3 3 3 3 3 3 2 2 2 2 2 2 3 4 6 6
6 4 4 4 3 3 4 4 3 4 4 4 4 4 3 4 3 3 3 3 3 3 2 2 2 2 2 2 3 2 3 4